EW3302 Weather Reports


Display with metric or nautical units.
time (UTC)temp
F
wind
direction
speed
MPH
gust
MPH
rain 1hr
in
rain 24hr
in
rain mn
in
humidity
%
barometer
mb
20260510062517 46 135 2.0 5.0 0.00 0.00 0.00 63 1012.5
20260510061517 46 113 1.0 5.0 0.00 0.00 0.00 64 1012.6
20260510060517 45 113 2.0 4.0 0.00 0.00 0.00 65 1012.8
20260510055517 44 113 3.0 7.0 0.00 0.00 0.00 65 1012.8
20260510054517 43 113 3.0 5.0 0.00 0.00 0.00 66 1012.9
20260510053517 43 113 2.0 5.0 0.00 0.00 0.00 65 1013.1
20260510052517 42 113 2.0 5.0 0.00 0.00 0.00 66 1013.1
20260510051517 42 90 2.0 3.0 0.00 0.00 0.00 65 1013.3
20260510050517 41 90 2.0 3.0 0.00 0.00 0.00 67 1013.4
20260510045517 40 90 1.0 4.0 0.00 0.00 0.00 67 1013.6
20260510044517 39 135 2.0 4.0 0.00 0.00 0.00 70 1013.7
20260510043517 38 113 1.0 2.0 0.00 0.00 0.00 71 1013.8
20260510042517 38 113 2.0 4.0 0.00 0.00 0.00 71 1013.9
20260510041517 38 113 3.0 5.0 0.00 0.00 0.00 72 1013.9
20260510040537 37 113 1.0 2.0 0.00 0.00 0.00 73 1014.0
20260510035517 36 90 2.0 3.0 0.00 0.00 0.00 76 1014.1
20260510034517 35 90 2.0 3.0 0.00 0.00 0.00 77 1014.2
20260510033517 34 135 1.0 2.0 0.00 0.00 0.00 76 1014.4
20260510032517 34 0.0 1.0 0.00 0.00 0.00 76 1014.6
20260510031517 34 0.0 1.0 0.00 0.00 0.00 75 1014.7
20260510030517 35 0.0 0.0 0.00 0.00 0.00 74 1014.8
20260510025517 35 0.0 1.0 0.00 0.00 0.00 74 1014.9
20260510024517 35 0.0 0.0 0.00 0.00 0.00 73 1015.1
20260510023517 36 135 1.0 3.0 0.00 0.00 0.00 72 1015.3
20260510022517 36 135 1.0 2.0 0.00 0.00 0.00 70 1015.4
20260510021517 37 0.0 1.0 0.00 0.00 0.00 69 1015.5
20260510020517 38 0.0 1.0 0.00 0.00 0.00 68 1015.6
20260510015517 38 0.0 1.0 0.00 0.00 0.00 67 1015.7
20260510014537 39 135 2.0 3.0 0.00 0.00 0.00 66 1015.9
20260510013537 39 113 2.0 4.0 0.00 0.00 0.00 65 1016.0
20260510012517 40 135 2.0 3.0 0.00 0.00 0.00 64 1016.2
20260510011517 40 158 2.0 4.0 0.00 0.00 0.00 64 1016.3
20260510010517 41 158 2.0 5.0 0.00 0.00 0.00 63 1016.5
20260510005517 41 135 2.0 4.0 0.00 0.00 0.00 62 1016.6
20260510004517 41 135 3.0 7.0 0.00 0.00 0.00 62 1016.7
20260510003517 40 135 3.0 7.0 0.00 0.00 0.00 63 1016.8
20260510002517 41 113 2.0 4.0 0.00 0.00 0.00 62 1017.0
20260510001517 41 135 3.0 6.0 0.00 0.00 0.00 62 1017.0
20260510000517 42 135 3.0 5.0 0.00 0.00 0.00 60 1017.1
20260509235517 42 135 2.0 5.0 0.00 0.00 0.00 59 1017.2
20260509234517 43 135 1.0 3.0 0.00 0.00 0.00 58 1017.4
20260509233517 43 113 2.0 5.0 0.00 0.00 0.00 56 1017.4
20260509232517 44 135 4.0 6.0 0.00 0.00 0.00 56 1017.5
20260509231537 44 135 3.0 6.0 0.00 0.00 0.00 55 1017.6
20260509230517 45 135 3.0 5.0 0.00 0.00 0.00 54 1017.7
20260509225517 45 135 5.0 10.0 0.00 0.00 0.00 54 1017.7
20260509224517 45 135 4.0 7.0 0.00 0.00 0.00 53 1017.8
20260509223517 45 135 4.0 9.0 0.00 0.00 0.00 53 1017.9
20260509222537 44 135 3.0 7.0 0.00 0.00 0.00 55 1017.9
20260509221517 42 135 3.0 6.0 0.00 0.00 0.00 59 1017.9
20260509220517 42 135 1.0 3.0 0.00 0.00 0.00 58 1018.0
20260509215516 42 135 1.0 3.0 0.00 0.00 0.00 56 1017.9
20260509214516 43 135 1.0 2.0 0.00 0.00 0.00 54 1018.0
20260509213516 43 135 1.0 2.0 0.00 0.00 0.00 53 1018.0
20260509212516 44 135 2.0 2.0 0.00 0.00 0.00 51 1018.0
20260509211536 45 113 2.0 3.0 0.00 0.00 0.00 50 1018.0
20260509210516 45 135 2.0 4.0 0.00 0.00 0.00 49 1018.1
20260509205516 45 135 2.0 3.0 0.00 0.00 0.00 49 1018.1
20260509204516 46 135 1.0 3.0 0.00 0.00 0.00 47 1018.1
20260509203516 46 135 1.0 3.0 0.00 0.00 0.00 46 1018.1
20260509202516 47 135 2.0 4.0 0.00 0.00 0.00 45 1018.1
20260509201516 47 113 1.0 2.0 0.00 0.00 0.00 44 1018.1
20260509200536 48 113 1.0 2.0 0.00 0.00 0.00 42 1018.2
20260509195516 49 135 2.0 3.0 0.00 0.00 0.00 41 1018.3
20260509194516 50 158 1.0 2.0 0.00 0.00 0.00 40 1018.3
20260509193516 51 158 1.0 2.0 0.00 0.00 0.00 38 1018.3
20260509192516 53 0.0 1.0 0.00 0.00 0.00 34 1018.4
20260509191516 54 135 3.0 5.0 0.00 0.00 0.00 34 1018.4
20260509190516 54 135 3.0 6.0 0.00 0.00 0.00 32 1018.5
20260509185516 55 135 3.0 6.0 0.00 0.00 0.00 31 1018.4
20260509184516 55 135 4.0 5.0 0.00 0.00 0.00 30 1018.3
20260509183516 56 135 3.0 6.0 0.00 0.00 0.00 31 1018.4
20260509182516 57 135 3.0 6.0 0.00 0.00 0.00 29 1018.4
20260509181516 57 135 5.0 9.0 0.00 0.00 0.00 27 1018.4
20260509180516 57 135 5.0 9.0 0.00 0.00 0.00 27 1018.5
20260509175516 57 135 3.0 7.0 0.00 0.00 0.00 27 1018.3
20260509174516 58 113 4.0 8.0 0.00 0.00 0.00 26 1018.4
20260509173516 58 158 5.0 10.0 0.00 0.00 0.00 24 1018.4
20260509172536 59 135 6.0 11.0 0.00 0.00 0.00 23 1018.5
20260509171536 59 135 4.0 7.0 0.00 0.00 0.00 25 1018.6
20260509170516 59 180 5.0 11.0 0.00 0.00 0.00 24 1018.6
20260509165516 59 158 5.0 11.0 0.00 0.00 0.00 24 1018.7
20260509164516 59 180 5.0 10.0 0.00 0.00 0.00 22 1018.7
20260509163516 60 203 6.0 11.0 0.00 0.00 0.00 21 1018.8
20260509162516 60 203 5.0 10.0 0.00 0.00 0.00 22 1018.9
20260509161516 60 180 6.0 14.0 0.00 0.00 0.00 20 1018.9
20260509160516 60 158 6.0 11.0 0.00 0.00 0.00 24 1019.1
20260509155516 60 158 6.0 9.0 0.00 0.00 0.00 22 1019.1
20260509154516 60 180 6.0 10.0 0.00 0.00 0.00 22 1019.2
20260509153516 60 158 5.0 9.0 0.00 0.00 0.00 22 1019.3
20260509152516 61 203 7.0 13.0 0.00 0.00 0.00 23 1019.4
20260509151516 61 135 7.0 12.0 0.00 0.00 0.00 24 1019.5
20260509150516 60 135 9.0 16.0 0.00 0.00 0.00 22 1019.6
20260509145516 61 158 6.0 11.0 0.00 0.00 0.00 22 1019.7
20260509144516 61 180 6.0 13.0 0.00 0.00 0.00 22 1019.8
20260509143536 61 113 6.0 14.0 0.00 0.00 0.00 24 1019.9
20260509142516 61 135 7.0 14.0 0.00 0.00 0.00 24 1020.0
20260509141516 61 113 8.0 14.0 0.00 0.00 0.00 21 1020.2
20260509140516 61 135 6.0 11.0 0.00 0.00 0.00 22 1020.4
20260509135516 61 113 6.0 12.0 0.00 0.00 0.00 23 1020.5
20260509134516 61 180 5.0 10.0 0.00 0.00 0.00 22 1020.7
20260509133516 61 203 6.0 12.0 0.00 0.00 0.00 23 1020.8
20260509132516 61 135 6.0 13.0 0.00 0.00 0.00 22 1021.0
20260509131516 61 113 11.0 18.0 0.00 0.00 0.00 22 1021.2
20260509130516 61 135 8.0 14.0 0.00 0.00 0.00 21 1021.3
20260509125516 61 113 7.0 14.0 0.00 0.00 0.00 25 1021.5
20260509124516 61 135 8.0 16.0 0.00 0.00 0.00 21 1021.7
20260509123536 61 135 7.0 13.0 0.00 0.00 0.00 24 1021.8
20260509122536 61 203 7.0 16.0 0.00 0.00 0.00 25 1021.8
20260509121516 61 113 8.0 15.0 0.00 0.00 0.00 24 1022.1
20260509120536 61 113 8.0 13.0 0.00 0.00 0.00 24 1022.2
20260509115516 61 180 6.0 13.0 0.00 0.00 0.00 23 1022.3
20260509114516 61 135 8.0 14.0 0.00 0.00 0.00 22 1022.5
20260509113516 61 113 10.0 17.0 0.00 0.00 0.00 23 1022.5
20260509112516 60 158 6.0 12.0 0.00 0.00 0.00 24 1022.8
20260509111536 60 135 10.0 14.0 0.00 0.00 0.00 21 1022.9
20260509110516 60 135 6.0 11.0 0.00 0.00 0.00 23 1023.0
20260509105516 60 135 7.0 13.0 0.00 0.00 0.00 22 1023.1
20260509104516 60 180 5.0 8.0 0.00 0.00 0.00 24 1023.2
20260509103516 59 113 7.0 13.0 0.00 0.00 0.00 24 1023.4
20260509102516 59 135 7.0 12.0 0.00 0.00 0.00 21 1023.4
20260509101536 59 135 6.0 12.0 0.00 0.00 0.00 26 1023.5
20260509100516 58 135 6.0 10.0 0.00 0.00 0.00 24 1023.7
20260509095516 58 158 5.0 11.0 0.00 0.00 0.00 26 1023.8
20260509094515 58 135 8.0 17.0 0.00 0.00 0.00 22 1024.0
20260509093535 57 180 7.0 13.0 0.00 0.00 0.00 25 1023.9
20260509092536 57 135 8.0 18.0 0.00 0.00 0.00 27 1024.2
20260509091515 56 113 9.0 14.0 0.00 0.00 0.00 29 1024.1
20260509090515 56 135 8.0 12.0 0.00 0.00 0.00 26 1024.2
20260509085536 56 135 6.0 12.0 0.00 0.00 0.00 28 1024.3
20260509084515 56 180 7.0 11.0 0.00 0.00 0.00 27 1024.4
20260509083516 56 158 6.0 10.0 0.00 0.00 0.00 28 1024.3
20260509082516 55 180 7.0 15.0 0.00 0.00 0.00 26 1024.5
20260509081516 54 135 7.0 13.0 0.00 0.00 0.00 28 1024.5
20260509080536 54 135 8.0 12.0 0.00 0.00 0.00 27 1024.6
20260509075535 53 135 8.0 14.0 0.00 0.00 0.00 28 1024.6
20260509074516 53 135 8.0 14.0 0.00 0.00 0.00 28 1024.6
20260509073515 53 135 9.0 15.0 0.00 0.00 0.00 29 1024.6
20260509072515 53 135 7.0 14.0 0.00 0.00 0.00 29 1024.7
20260509071516 53 113 8.0 14.0 0.00 0.00 0.00 30 1024.9
20260509070535 53 135 5.0 10.0 0.00 0.00 0.00 30 1024.8
20260509065515 52 158 4.0 9.0 0.00 0.00 0.00 29 1025.0
20260509064515 51 135 7.0 11.0 0.00 0.00 0.00 27 1025.0
20260509063536 51 135 6.0 11.0 0.00 0.00 0.00 29 1025.0